Weather History for Allentown, PA

Change the Weather History Date:

Monday, March 10, 2014

  Actual Average (KABE) Record (KABE)
Temperature  
Mean Temperature 42 °F 37 °F  
Max Temperature 51 °F 47 °F 75 °F (2006)
Min Temperature 33 °F 27 °F 4 °F (1984)
Degree Days  
Heating Degree Days 23 28  
Month to date heating degree days 295  
Since 1 July heating degree days 4604  
Cooling Degree Days 0 0  
Month to date cooling degree days 0  
Year to date cooling degree days 0  
Moisture  
Dew Point 21 °F    
Average Humidity 44    
Maximum Humidity 56    
Minimum Humidity 33    
Precipitation  
Precipitation 0.00 in 0.10 in 2.24 in (2011)
Month to date precipitation 1.00  
Year to date precipitation 6.73  
Snow  
Snow 0.00 in 0.20 in 7.00 in (1928)
Month to date snowfall 2.3  
Since 1 July snowfall 29.3  
Snow Depth -    
Sea Level Pressure  
Sea Level Pressure 29.78 in    
Wind  
Wind Speed 6 mph (SW)    
Max Wind Speed 12 mph    
Max Gust Speed 18 mph    
Visibility 10 miles    
Events      
T = Trace of Precipitation, MM = Missing Value Source: NWS Daily Summary

Daily Weather History Graph

Daily Weather History Graph

Search for Another Location

Airport:

Trip Planner

Search our weather history database for the weather conditions in past years. The results will help you decide how hot, cold, wet, or windy it might be!

Date:

Astronomy

Mar. 10, 2014 Rise Set
Actual Time 7:21 AM EDT 7:03 PM EDT
Civil Twilight 6:54 AM EDT 7:30 PM EDT
Nautical Twilight 6:22 AM EDT 8:02 PM EDT
Astronomical Twilight 5:51 AM EDT 8:34 PM EDT
Moon 1:43 PM EDT (3/10) 3:32 AM EDT (3/10)
Length of Visible Light 12h 36m
Length of Day
11h 41m
Waxing Gibbous, 70% of the Moon is Illuminated
Mar 10
Waxing Gibbous
Mar 16
Full
Mar 23
Last Quarter
Mar 30
New
Apr 7
First Quarter

Hourly Weather History & Observations

Time (EDT) Temp. Windchill Dew Point Humidity Pressure Visibility Wind Dir Wind Speed Gust Speed Precip Events Conditions
12:15 AM 33.8 °F 27.7 °F 15.8 °F 48% 29.96 in 10.0 mi SW 6.9 mph - N/A   Clear
12:35 AM 33.8 °F 29.6 °F 14.0 °F 44% 29.96 in 10.0 mi WSW 4.6 mph - N/A   Scattered Clouds
12:55 AM 33.8 °F 28.6 °F 15.8 °F 48% 29.95 in 10.0 mi SW 5.8 mph - N/A   Scattered Clouds
1:15 AM 33.8 °F 29.6 °F 17.6 °F 52% 29.94 in 10.0 mi WSW 4.6 mph - N/A   Clear
1:35 AM 33.8 °F 27.7 °F 15.8 °F 48% 29.93 in 10.0 mi WSW 6.9 mph - N/A   Scattered Clouds
1:55 AM 35.6 °F 31.7 °F 15.8 °F 44% 29.92 in 10.0 mi WSW 4.6 mph - N/A   Scattered Clouds
2:15 AM 35.6 °F 30.7 °F 17.6 °F 48% 29.91 in 10.0 mi SW 5.8 mph - N/A   Clear
2:35 AM 35.6 °F 31.7 °F 15.8 °F 44% 29.90 in 10.0 mi WSW 4.6 mph - N/A   Clear
2:55 AM 35.6 °F 31.7 °F 15.8 °F 44% 29.89 in 10.0 mi WSW 4.6 mph - N/A   Clear
3:15 AM 35.6 °F 30.7 °F 15.8 °F 44% 29.89 in 10.0 mi WSW 5.8 mph - N/A   Scattered Clouds
3:35 AM 35.6 °F 30.7 °F 15.8 °F 44% 29.88 in 10.0 mi SW 5.8 mph - N/A   Scattered Clouds
3:55 AM 35.6 °F 29.2 °F 15.8 °F 44% 29.87 in 10.0 mi SW 8.1 mph - N/A   Clear
4:15 AM 35.6 °F 29.2 °F 15.8 °F 44% 29.87 in 10.0 mi WSW 8.1 mph - N/A   Clear
4:35 AM 35.6 °F 30.7 °F 17.6 °F 48% 29.86 in 10.0 mi WSW 5.8 mph - N/A   Clear
4:55 AM 35.6 °F 32.8 °F 17.6 °F 48% 29.86 in 10.0 mi West 3.5 mph - N/A   Scattered Clouds
5:15 AM 35.6 °F 31.7 °F 17.6 °F 48% 29.86 in 10.0 mi WSW 4.6 mph - N/A   Scattered Clouds
5:35 AM 35.6 °F 30.7 °F 17.6 °F 48% 29.86 in 10.0 mi SW 5.8 mph - N/A   Scattered Clouds
5:55 AM 35.6 °F 30.7 °F 17.6 °F 48% 29.86 in 10.0 mi SW 5.8 mph - N/A   Scattered Clouds
6:15 AM 35.6 °F 31.7 °F 19.4 °F 52% 29.85 in 10.0 mi South 4.6 mph - N/A   Scattered Clouds
6:35 AM 35.6 °F 32.8 °F 19.4 °F 52% 29.86 in 10.0 mi SSW 3.5 mph - N/A   Scattered Clouds
6:55 AM 35.6 °F - 17.6 °F 48% 29.86 in 10.0 mi Calm Calm - N/A   Mostly Cloudy
7:15 AM 35.6 °F - 17.6 °F 48% 29.86 in 10.0 mi Calm Calm - N/A   Mostly Cloudy
7:35 AM 35.6 °F 32.8 °F 19.4 °F 52% 29.85 in 10.0 mi SSW 3.5 mph - N/A   Scattered Clouds
7:55 AM 35.6 °F 31.7 °F 21.2 °F 56% 29.85 in 10.0 mi SW 4.6 mph - N/A   Overcast
8:15 AM 35.6 °F 32.8 °F 19.4 °F 52% 29.85 in 10.0 mi SW 3.5 mph - N/A   Overcast
8:35 AM 35.6 °F 32.8 °F 21.2 °F 56% 29.85 in 10.0 mi WSW 3.5 mph - N/A   Scattered Clouds
8:55 AM 35.6 °F - 21.2 °F 56% 29.85 in 10.0 mi Calm Calm - N/A   Clear
9:15 AM 37.4 °F 34.9 °F 19.4 °F 48% 29.85 in 10.0 mi SW 3.5 mph - N/A   Scattered Clouds
9:35 AM 39.2 °F 37.0 °F 19.4 °F 45% 29.85 in 10.0 mi WSW 3.5 mph - N/A   Scattered Clouds
9:55 AM 39.2 °F 35.9 °F 21.2 °F 49% 29.84 in 10.0 mi WSW 4.6 mph - N/A   Clear
10:15 AM 41.0 °F 37.1 °F 19.4 °F 42% 29.84 in 10.0 mi SW 5.8 mph - N/A   Clear
10:35 AM 41.0 °F 38.0 °F 21.2 °F 45% 29.84 in 10.0 mi WSW 4.6 mph - N/A   Clear
10:55 AM 41.0 °F 38.0 °F 19.4 °F 42% 29.84 in 10.0 mi West 4.6 mph - N/A   Clear
11:15 AM 41.0 °F 39.0 °F 19.4 °F 42% 29.83 in 10.0 mi West 3.5 mph - N/A   Clear
11:35 AM 41.0 °F 37.1 °F 21.2 °F 45% 29.82 in 10.0 mi SW 5.8 mph - N/A   Scattered Clouds
11:55 AM 41.0 °F 36.4 °F 19.4 °F 42% 29.82 in 10.0 mi WSW 6.9 mph - N/A   Scattered Clouds
12:15 PM 42.8 °F 37.5 °F 19.4 °F 39% 29.81 in 10.0 mi SW 9.2 mph - N/A   Clear
12:35 PM 42.8 °F 38.0 °F 21.2 °F 42% 29.81 in 10.0 mi WSW 8.1 mph - N/A   Clear
12:55 PM 44.6 °F 39.2 °F 21.2 °F 39% 29.79 in 10.0 mi WSW 10.4 mph 17.3 mph N/A   Clear
1:15 PM 44.6 °F 39.2 °F 21.2 °F 39% 29.78 in 10.0 mi SW 10.4 mph - N/A   Clear
1:35 PM 44.6 °F 39.2 °F 21.2 °F 39% 29.77 in 10.0 mi WSW 10.4 mph - N/A   Scattered Clouds
1:55 PM 46.4 °F 41.1 °F 21.2 °F 37% 29.76 in 10.0 mi WSW 11.5 mph 16.1 mph N/A   Scattered Clouds
2:15 PM 46.4 °F 41.5 °F 23.0 °F 40% 29.76 in 10.0 mi WSW 10.4 mph 18.4 mph N/A   Scattered Clouds
2:35 PM 46.4 °F 41.1 °F 23.0 °F 40% 29.75 in 10.0 mi SW 11.5 mph 18.4 mph N/A   Scattered Clouds
2:55 PM 48.2 °F - 23.0 °F 37% 29.74 in 10.0 mi WSW 10.4 mph 16.1 mph N/A   Scattered Clouds
3:15 PM 48.2 °F - 23.0 °F 37% 29.73 in 10.0 mi WSW 9.2 mph - N/A   Scattered Clouds
3:35 PM 50.0 °F - 23.0 °F 35% 29.72 in 10.0 mi WSW 6.9 mph - N/A   Clear
3:55 PM 50.0 °F - 23.0 °F 35% 29.70 in 10.0 mi SSW 6.9 mph - N/A   Clear
4:10 PM 50.0 °F - 23.0 °F 35% 29.70 in 10.0 mi SW 5.8 mph - N/A   Clear
4:35 PM 50.0 °F - 23.0 °F 35% 29.68 in 10.0 mi SSW 6.9 mph - N/A   Clear
4:55 PM 50.0 °F - 24.8 °F 37% 29.68 in 10.0 mi SSW 9.2 mph - N/A   Clear
5:15 PM 51.8 °F - 23.0 °F 33% 29.67 in 10.0 mi South 5.8 mph - N/A   Clear
5:35 PM 51.8 °F - 24.8 °F 35% 29.66 in 10.0 mi SW 5.8 mph - N/A   Clear
5:55 PM 51.8 °F - 24.8 °F 35% 29.66 in 10.0 mi South 6.9 mph - N/A   Clear
6:15 PM 51.8 °F - 26.6 °F 38% 29.65 in 10.0 mi South 6.9 mph - N/A   Clear
6:35 PM 50.0 °F - 26.6 °F 40% 29.65 in 10.0 mi South 4.6 mph - N/A   Clear
6:55 PM 50.0 °F - 26.6 °F 40% 29.66 in 10.0 mi SSW 6.9 mph - N/A   Clear
7:15 PM 50.0 °F - 26.6 °F 40% 29.66 in 10.0 mi SSW 6.9 mph - N/A   Mostly Cloudy
7:35 PM 48.2 °F - 26.6 °F 43% 29.67 in 10.0 mi SW 4.6 mph - N/A   Overcast
7:55 PM 46.4 °F 43.5 °F 26.6 °F 46% 29.66 in 10.0 mi SSW 5.8 mph - N/A   Mostly Cloudy
8:15 PM 46.4 °F 43.5 °F 26.6 °F 46% 29.66 in 10.0 mi SSW 5.8 mph - N/A   Scattered Clouds
8:35 PM 46.4 °F 45.2 °F 26.6 °F 46% 29.66 in 10.0 mi WSW 3.5 mph - N/A   Scattered Clouds
8:50 PM 46.4 °F 44.3 °F 26.6 °F 46% 29.66 in 10.0 mi SSW 4.6 mph - N/A   Clear
9:15 PM 46.4 °F 45.2 °F 26.6 °F 46% 29.66 in 10.0 mi SW 3.5 mph - N/A   Clear
9:35 PM 46.4 °F 43.5 °F 26.6 °F 46% 29.65 in 10.0 mi SW 5.8 mph - N/A   Clear
9:55 PM 44.6 °F - 26.6 °F 49% 29.65 in 10.0 mi Calm Calm - N/A   Clear
10:15 PM 46.4 °F 44.3 °F 24.8 °F 43% 29.65 in 10.0 mi SW 4.6 mph - N/A   Clear
10:35 PM 44.6 °F 43.1 °F 26.6 °F 49% 29.64 in 10.0 mi SSW 3.5 mph - N/A   Clear
10:55 PM 44.6 °F - 26.6 °F 49% 29.64 in 10.0 mi Calm Calm - N/A   Clear
11:15 PM 44.6 °F 43.1 °F 26.6 °F 49% 29.63 in 10.0 mi SW 3.5 mph - N/A   Clear
11:35 PM 42.8 °F - 26.6 °F 53% 29.63 in 10.0 mi Calm Calm - N/A   Clear
11:55 PM 42.8 °F - 26.6 °F 53% 29.61 in 10.0 mi Calm Calm - N/A   Clear